{"data":{"norad_id":65316,"epoch":"2026-05-25T04:50:58.197408Z","epoch_age_seconds":57781,"freshness":"FRESH","line1":"1 65316U 25188B   26145.20206247  .00001070  00000+0  28215-4 0  9995","line2":"2 65316  97.1989 221.8465 0002103  99.2661 260.8823 15.40682714 41779","mean_motion":15.40682714,"eccentricity":0.0002103,"inclination_deg":97.1989,"raan_deg":221.8465,"arg_perigee_deg":99.2661,"mean_anomaly_deg":260.8823,"bstar":2.8215e-5,"rev_number":4177,"period_min":93.465058503928,"perigee_km":442.6584609899,"apogee_km":445.52789100193,"semimajor_km":6822.2301759959,"source":"CELESTRAK","updated_at":"2026-05-25T13:38:13.344327Z"}}